Time,TemperatureF,DewpointF,PressureIn,WindDirection,WindDirectionDegrees,WindSpeedMPH,WindSpeedGustMPH,Humidity,HourlyPrecipIn,Conditions,Clouds,dailyrainin,SoftwareType,DateUTC
2013-08-30 00:25:00,70.0,69.0,25.01,North,0,0.0,0.0,96,0.00,,,0.00,,2013-08-30 04:25:00,
2013-08-30 00:54:00,70.0,69.0,25.02,North,0,0.0,2.0,96,0.00,,,0.00,,2013-08-30 04:54:00,
2013-08-30 01:23:00,69.0,68.0,25.02,North,0,0.0,0.0,96,0.01,,,0.01,,2013-08-30 05:23:00,
2013-08-30 01:52:00,69.0,68.0,25.02,North,0,0.0,0.0,96,0.23,,,0.23,,2013-08-30 05:52:00,
2013-08-30 02:22:00,68.0,67.0,25.02,North,0,0.0,0.0,96,0.26,,,0.27,,2013-08-30 06:22:00,
2013-08-30 02:53:00,68.0,67.0,25.02,North,0,0.0,0.0,96,0.04,,,0.27,,2013-08-30 06:53:00,
2013-08-30 03:22:00,67.0,66.0,25.02,North,0,0.0,0.0,96,0.00,,,0.27,,2013-08-30 07:22:00,
2013-08-30 03:53:00,67.0,66.0,25.02,North,0,0.0,0.0,97,0.00,,,0.27,,2013-08-30 07:53:00,
2013-08-30 04:22:00,67.0,66.0,25.02,North,0,0.0,0.0,97,0.00,,,0.27,,2013-08-30 08:22:00,
2013-08-30 04:52:00,67.0,66.0,25.02,North,0,0.0,0.0,97,0.00,,,0.27,,2013-08-30 08:52:00,
2013-08-30 05:22:00,67.0,66.0,25.02,North,0,0.0,0.0,97,0.00,,,0.27,,2013-08-30 09:22:00,
2013-08-30 05:53:00,67.0,66.0,25.02,North,0,0.0,0.0,97,0.00,,,0.27,,2013-08-30 09:53:00,
2013-08-30 06:23:00,67.0,66.0,25.02,North,0,0.0,0.0,98,0.00,,,0.27,,2013-08-30 10:23:00,
2013-08-30 06:53:00,67.0,66.0,25.02,North,0,0.0,0.0,98,0.00,,,0.27,,2013-08-30 10:53:00,
2013-08-30 07:22:00,66.0,65.0,25.03,North,0,0.0,0.0,98,0.00,,,0.27,,2013-08-30 11:22:00,
2013-08-30 07:52:00,67.0,66.0,25.03,North,0,0.0,0.0,98,0.00,,,0.27,,2013-08-30 11:52:00,
2013-08-30 08:21:00,68.0,67.0,25.03,North,0,0.0,0.0,98,0.00,,,0.27,,2013-08-30 12:21:00,
2013-08-30 08:52:00,68.0,68.0,25.03,North,0,0.0,0.0,99,0.00,,,0.27,,2013-08-30 12:52:00,
2013-08-30 09:22:00,69.0,69.0,25.03,North,0,0.0,0.0,99,0.00,,,0.27,,2013-08-30 13:22:00,
2013-08-30 09:52:00,70.0,70.0,25.03,North,0,0.0,0.0,99,0.00,,,0.27,,2013-08-30 13:52:00,
2013-08-30 10:21:00,71.0,71.0,25.03,North,0,0.0,1.0,99,0.00,,,0.27,,2013-08-30 14:21:00,
2013-08-30 10:52:00,73.0,73.0,22.00,North,0,0.0,1.0,100,0.00,,,0.27,,2013-08-30 14:52:00,
2013-08-30 11:22:00,73.0,73.0,18.97,North,0,0.0,0.0,99,0.00,,,0.27,,2013-08-30 15:22:00,
2013-08-30 11:54:00,73.0,72.0,18.97,North,0,0.0,1.0,98,0.00,,,0.27,,2013-08-30 15:54:00,
2013-08-30 12:25:00,74.0,73.0,30.67,North,0,0.0,0.0,97,0.00,,,0.27,,2013-08-30 16:25:00,
2013-08-30 12:53:00,75.0,73.0,27.64,North,0,0.0,0.0,95,0.00,,,0.27,,2013-08-30 16:53:00,
2013-08-30 13:23:00,77.0,74.0,27.64,North,0,0.0,1.0,90,0.00,,,0.27,,2013-08-30 17:23:00,
2013-08-30 13:53:00,79.0,75.0,31.57,North,0,0.0,0.0,88,0.00,,,0.27,,2013-08-30 17:53:00,
2013-08-30 14:22:00,79.0,74.0,30.67,North,0,0.0,0.0,85,0.00,,,0.27,,2013-08-30 18:22:00,
2013-08-30 14:52:00,81.0,75.0,30.67,North,0,0.0,1.0,83,0.00,,,0.27,,2013-08-30 18:52:00,
2013-08-30 15:22:00,83.0,77.0,30.67,North,0,0.0,0.0,81,0.00,,,0.27,,2013-08-30 19:22:00,
2013-08-30 15:53:00,83.0,76.0,21.99,North,0,0.0,0.0,79,0.00,,,0.27,,2013-08-30 19:53:00,
2013-08-30 16:22:00,83.0,77.0,21.99,North,0,0.0,0.0,81,0.00,,,0.27,,2013-08-30 20:22:00,
2013-08-30 16:52:00,83.0,76.0,31.57,North,0,0.0,2.0,80,0.00,,,0.27,,2013-08-30 20:52:00,
2013-08-30 17:22:00,82.0,76.0,25.02,North,0,0.0,0.0,82,0.00,,,0.27,,2013-08-30 21:22:00,
2013-08-30 17:55:00,81.0,75.0,25.02,North,0,0.0,1.0,83,0.00,,,0.27,,2013-08-30 21:55:00,
2013-08-30 18:24:00,80.0,75.0,30.67,North,0,0.0,3.0,85,0.00,,,0.27,,2013-08-30 22:24:00,
2013-08-30 18:54:00,79.0,74.0,30.67,North,0,0.0,2.0,86,0.00,,,0.27,,2013-08-30 22:54:00,
2013-08-30 19:22:00,78.0,74.0,30.67,North,0,0.0,2.0,87,0.00,,,0.27,,2013-08-30 23:22:00,
2013-08-30 19:53:00,77.0,73.0,30.67,North,0,0.0,0.0,88,0.00,,,0.27,,2013-08-30 23:53:00,
2013-08-30 20:22:00,76.0,73.0,25.13,North,0,0.0,0.0,90,0.00,,,0.27,,2013-08-31 00:22:00,
2013-08-30 20:52:00,75.0,72.0,25.13,North,0,0.0,0.0,91,0.00,,,0.27,,2013-08-31 00:52:00,
2013-08-30 21:22:00,74.0,72.0,25.13,North,0,0.0,0.0,92,0.00,,,0.27,,2013-08-31 01:22:00,
2013-08-30 21:52:00,73.0,71.0,28.69,North,0,0.0,0.0,93,0.00,,,0.27,,2013-08-31 01:52:00,
2013-08-30 22:22:00,72.0,70.0,26.90,North,0,0.0,0.0,94,0.00,,,0.27,,2013-08-31 02:22:00,
2013-08-30 22:52:00,72.0,70.0,26.90,North,0,0.0,1.0,94,0.00,,,0.27,,2013-08-31 02:52:00,
2013-08-30 23:22:00,72.0,70.0,26.90,North,0,0.0,0.0,95,0.00,,,0.27,,2013-08-31 03:22:00,
2013-08-30 23:54:00,72.0,71.0,18.98,North,0,0.0,0.0,96,0.00,,,0.27,,2013-08-31 03:54:00,